When you browse on this site, cookies collect data to enhance your experience and personalize the content and advertising you see.
Visit our Privacy Policy to learn more. By continuing to use the site, you agree to this use of cookies and data.
  • In Spain
  • List of Countries
  • For 7 days
  • Water Temperature
  • Satellite Maps
  • Weather Map
  • Weather Widgets
  • user-avatar
    Login

    Hourly Weather Porod

    Today, 19 February, Tuesday

    Time Temperature Precipitation Wind Pressure Humidity
    00:00 +17°C° 0 mm 5 mps 732 mmHg 16%
    01:00 +16°C° 0 mm 5 mps 732 mmHg 17%
    02:00 +16°C° 0 mm 5 mps 731 mmHg 18%
    03:00 +15°C° 0 mm 5 mps 731 mmHg 20%
    04:00 +15°C° 0 mm 5 mps 731 mmHg 21%
    05:00 +14°C° 0 mm 5 mps 731 mmHg 21%
    06:00 +14°C° 0 mm 5 mps 732 mmHg 22%
    07:00 +14°C° 0 mm 5 mps 732 mmHg 22%
    08:00 +17°C° 0 mm 6 mps 732 mmHg 18%
    09:00 +21°C° 0 mm 8 mps 733 mmHg 15%
    10:00 +23°C° 0 mm 9 mps 733 mmHg 11%
    11:00 +26°C° 0 mm 9 mps 733 mmHg 10%
    12:00 +28°C° 0 mm 9 mps 732 mmHg 9%
    13:00 +31°C° 0 mm 8 mps 732 mmHg 7%
    14:00 +31°C° 0 mm 8 mps 731 mmHg 7%
    15:00 +31°C° 0 mm 8 mps 731 mmHg 7%
    16:00 +32°C° 0 mm 8 mps 730 mmHg 7%
    17:00 +29°C° 0 mm 7 mps 730 mmHg 8%
    18:00 +26°C° 0 mm 6 mps 730 mmHg 9%
    19:00 +23°C° 0 mm 5 mps 730 mmHg 10%
    20:00 +22°C° 0 mm 5 mps 731 mmHg 11%
    21:00 +22°C° 0 mm 5 mps 731 mmHg 12%
    22:00 +21°C° 0 mm 5 mps 732 mmHg 12%
    23:00 +20°C° 0 mm 5 mps 731 mmHg 13%

    Tomorrow, 20 February, Wednesday

    Time Temperature Precipitation Wind Pressure Humidity
    00:00 +19°C° 0 mm 5 mps 731 mmHg 13%
    01:00 +19°C° 0 mm 5 mps 731 mmHg 14%
    02:00 +17°C° 0 mm 5 mps 731 mmHg 14%
    03:00 +17°C° 0 mm 5 mps 731 mmHg 15%
    04:00 +17°C° 0 mm 4 mps 730 mmHg 15%
    05:00 +17°C° 0 mm 4 mps 731 mmHg 16%
    06:00 +15°C° 0 mm 4 mps 731 mmHg 16%
    07:00 +15°C° 0 mm 4 mps 731 mmHg 16%
    08:00 +19°C° 0 mm 5 mps 732 mmHg 14%
    09:00 +22°C° 0 mm 6 mps 732 mmHg 12%
    10:00 +26°C° 0 mm 7 mps 733 mmHg 10%
    11:00 +28°C° 0 mm 7 mps 732 mmHg 8%
    12:00 +30°C° 0 mm 6 mps 732 mmHg 7%
    13:00 +33°C° 0 mm 6 mps 731 mmHg 6%
    14:00 +33°C° 0 mm 6 mps 730 mmHg 6%
    15:00 +34°C° 0 mm 5 mps 730 mmHg 5%
    16:00 +34°C° 0 mm 5 mps 729 mmHg 5%
    17:00 +32°C° 0 mm 5 mps 730 mmHg 6%
    18:00 +29°C° 0 mm 4 mps 730 mmHg 7%
    19:00 +26°C° 0 mm 4 mps 730 mmHg 8%
    20:00 +25°C° 0 mm 4 mps 731 mmHg 8%
    21:00 +23°C° 0 mm 4 mps 731 mmHg 9%
    22:00 +22°C° 0 mm 4 mps 732 mmHg 9%
    23:00 +22°C° 0 mm 4 mps 732 mmHg 10%

    Day after tomorrow, 21 February, Thursday

    Time Temperature Precipitation Wind Pressure Humidity
    00:00 +21°C° 0 mm 4 mps 731 mmHg 10%
    01:00 +21°C° 0 mm 4 mps 731 mmHg 11%
    02:00 +20°C° 0 mm 4 mps 731 mmHg 11%
    03:00 +20°C° 0 mm 4 mps 731 mmHg 12%
    04:00 +19°C° 0 mm 4 mps 730 mmHg 12%
    05:00 +19°C° 0 mm 4 mps 731 mmHg 12%
    06:00 +19°C° 0 mm 4 mps 731 mmHg 13%
    07:00 +19°C° 0 mm 4 mps 731 mmHg 13%
    08:00 +21°C° 0 mm 5 mps 732 mmHg 11%
    09:00 +25°C° 0 mm 5 mps 732 mmHg 9%
    10:00 +28°C° 0 mm 6 mps 733 mmHg 7%
    11:00 +30°C° 0 mm 6 mps 732 mmHg 7%
    12:00 +33°C° 0 mm 5 mps 732 mmHg 6%
    13:00 +35°C° 0 mm 5 mps 731 mmHg 5%
    14:00 +35°C° 0 mm 5 mps 731 mmHg 4%
    15:00 +35°C° 0 mm 5 mps 730 mmHg 4%
    16:00 +36°C° 0 mm 4 mps 730 mmHg 4%
    17:00 +33°C° 0 mm 4 mps 730 mmHg 5%
    18:00 +30°C° 0 mm 3 mps 730 mmHg 6%
    19:00 +27°C° 0 mm 3 mps 730 mmHg 6%
    20:00 +27°C° 0 mm 3 mps 731 mmHg 7%
    21:00 +26°C° 0 mm 3 mps 731 mmHg 7%
    22:00 +25°C° 0 mm 3 mps 732 mmHg 7%
    23:00 +25°C° 0 mm 3 mps 731 mmHg 8%

    22 February, Friday

    Time Temperature Precipitation Wind Pressure Humidity
    00:00 +24°C° 0 mm 3 mps 731 mmHg 8%
    01:00 +24°C° 0 mm 3 mps 731 mmHg 8%
    02:00 +22°C° 0 mm 3 mps 730 mmHg 8%
    03:00 +22°C° 0 mm 3 mps 730 mmHg 8%
    04:00 +22°C° 0 mm 3 mps 730 mmHg 8%
    05:00 +21°C° 0 mm 3 mps 730 mmHg 9%
    06:00 +21°C° 0 mm 3 mps 730 mmHg 9%
    07:00 +21°C° 0 mm 4 mps 730 mmHg 9%
    08:00 +25°C° 0 mm 4 mps 731 mmHg 8%
    09:00 +28°C° 0 mm 5 mps 731 mmHg 6%
    10:00 +30°C° 0 mm 6 mps 732 mmHg 5%
    11:00 +33°C° 0 mm 5 mps 731 mmHg 5%
    12:00 +35°C° 0 mm 5 mps 730 mmHg 4%
    13:00 +37°C° 0 mm 4 mps 729 mmHg 4%
    14:00 +37°C° 0 mm 4 mps 729 mmHg 4%
    15:00 +37°C° 0 mm 3 mps 728 mmHg 4%
    16:00 +38°C° 0 mm 3 mps 728 mmHg 4%
    17:00 +35°C° 0 mm 3 mps 728 mmHg 5%
    18:00 +31°C° 0 mm 2 mps 728 mmHg 6%
    19:00 +28°C° 0 mm 2 mps 728 mmHg 7%
    20:00 +27°C° 0 mm 2 mps 728 mmHg 7%
    21:00 +27°C° 0 mm 2 mps 729 mmHg 7%
    22:00 +26°C° 0 mm 2 mps 729 mmHg 8%
    23:00 +26°C° 0 mm 2 mps 729 mmHg 8%

    23 February, Saturday

    Time Temperature Precipitation Wind Pressure Humidity
    00:00 +25°C° 0 mm 2 mps 728 mmHg 8%
    01:00 +25°C° 0 mm 2 mps 728 mmHg 9%
    02:00 +24°C° 0 mm 2 mps 727 mmHg 9%
    03:00 +24°C° 0 mm 2 mps 727 mmHg 10%
    04:00 +23°C° 0 mm 2 mps 727 mmHg 10%
    05:00 +23°C° 0 mm 2 mps 727 mmHg 10%
    06:00 +24°C° 0 mm 2 mps 727 mmHg 9%
    07:00 +24°C° 0 mm 2 mps 728 mmHg 9%
    08:00 +27°C° 0 mm 2 mps 728 mmHg 8%
    09:00 +30°C° 0 mm 3 mps 729 mmHg 7%
    10:00 +34°C° 0 mm 3 mps 729 mmHg 5%
    11:00 +36°C° 0 mm 2 mps 728 mmHg 5%
    12:00 +37°C° 0 mm 2 mps 727 mmHg 5%
    13:00 +39°C° 0 mm 1 mps 727 mmHg 5%
    14:00 +39°C° 0 mm 2 mps 726 mmHg 5%
    15:00 +40°C° 0 mm 3 mps 726 mmHg 5%
    16:00 +40°C° 0 mm 3 mps 725 mmHg 5%
    17:00 +38°C° 0 mm 3 mps 725 mmHg 7%
    18:00 +35°C° 0 mm 3 mps 725 mmHg 8%
    19:00 +31°C° 0 mm 3 mps 726 mmHg 9%
    20:00 +30°C° 0 mm 4 mps 726 mmHg 9%
    21:00 +30°C° 0 mm 4 mps 727 mmHg 10%
    22:00 +29°C° 0 mm 5 mps 727 mmHg 10%
    23:00 +28°C° 0 mm 6 mps 727 mmHg 10%

    24 February, Sunday

    Time Temperature Precipitation Wind Pressure Humidity
    00:00 +26°C° 0 mm 7 mps 727 mmHg 10%
    01:00 +24°C° 0 mm 8 mps 727 mmHg 11%
    02:00 +23°C° 0 mm 8 mps 727 mmHg 13%
    03:00 +22°C° 0 mm 8 mps 727 mmHg 15%
    04:00 +21°C° 0 mm 8 mps 727 mmHg 17%
    05:00 +20°C° 0 mm 8 mps 727 mmHg 19%
    06:00 +20°C° 0 mm 8 mps 728 mmHg 21%
    07:00 +18°C° 0 mm 8 mps 728 mmHg 22%
    08:00 +21°C° 0 mm 9 mps 729 mmHg 20%
    09:00 +23°C° 0 mm 9 mps 729 mmHg 18%
    10:00 +24°C° 0 mm 10 mps 730 mmHg 16%
    11:00 +27°C° 0 mm 10 mps 730 mmHg 14%
    12:00 +29°C° 0 mm 10 mps 729 mmHg 12%
    13:00 +31°C° 0 mm 10 mps 729 mmHg 11%
    14:00 +32°C° 0 mm 9 mps 728 mmHg 10%
    15:00 +32°C° 0 mm 9 mps 728 mmHg 10%
    16:00 +32°C° 0 mm 8 mps 728 mmHg 9%
    17:00 +29°C° 0 mm 7 mps 728 mmHg 11%
    18:00 +27°C° 0 mm 6 mps 728 mmHg 12%
    19:00 +25°C° 0 mm 5 mps 729 mmHg 13%
    20:00 +23°C° 0 mm 5 mps 729 mmHg 13%
    21:00 +22°C° 0 mm 6 mps 729 mmHg 13%
    22:00 +21°C° 0 mm 6 mps 730 mmHg 14%
    23:00 +20°C° 0 mm 6 mps 730 mmHg 15%
    Show more